[[{"header":{"parameterUnit":"m.s-1","parameterCategory":1,"la1":30.2991,"la2":30.254,"lo1":-89.0895,"lo2":-89.0444,"dy":0.0017,"dx":0.0017,"nx":28,"ny":28,"refTime":"2024-03-31T03:00:00:Z","depth":0,"parameterNumber":2,"parameterNumberName":"U-component_of_WINDS"},"data":[0,0,0,0,0,0,0,0,0,0,0,0,0,0,0,0,0,0,0,0,0,0,0,0,0,0,0,0,0,0,0,0,0,0,0,0,0,0,0,0,0,0,0,0,0,0,0,0,0,0,0,0,0,0,0,0,0,0,-1.2372,-1.2372,0,-1.2311,-1.231,-1.231,-1.2247,-1.2246,-1.2245,-1.2244,-1.2182,-1.2181,-1.218,0,0,0,0,0,0,0,0,0,0,0,0,0,-1.2437,-1.2436,-1.2372,-1.2372,-1.2371,-1.2311,-1.231,-1.2309,-1.2247,-1.2246,-1.2245,-1.2244,-1.2182,-1.2181,-1.218,0,0,0,0,0,0,0,0,0,0,0,0,0,-1.2396,-1.2436,-1.2373,-1.2332,-1.2328,-1.2311,-1.231,-1.2309,-1.2247,-1.2246,-1.2244,-1.2243,-1.2182,-1.2181,-1.218,-1.2197,0,0,-1.2176,-1.2175,0,0,0,0,0,0,0,0,-1.2398,-1.2393,-1.2339,-1.2335,-1.233,-1.2285,-1.231,-1.2272,-1.2247,-1.2278,-1.2244,-1.2243,-1.2217,-1.2213,-1.2204,-1.2194,-1.2192,-1.2176,-1.2175,-1.2174,-1.2174,0,0,0,0,0,0,0,-1.2401,-1.2396,-1.2348,-1.2338,-1.2333,-1.2318,-1.2311,-1.2302,-1.2255,-1.2275,-1.227,-1.2264,-1.2214,-1.2206,-1.2202,-1.2191,-1.2176,-1.2174,-1.2174,-1.2173,-1.2193,-1.2194,0,0,0,0,0,0,-1.241,-1.2398,-1.235,-1.2346,-1.2362,-1.2318,-1.231,-1.2301,-1.2255,-1.2247,-1.2265,-1.2261,-1.2208,-1.2204,-1.22,-1.2217,-1.2174,-1.2173,-1.2172,-1.2191,-1.2193,-1.2194,0,0,0,0,0,0,-1.2411,-1.2406,-1.2353,-1.2371,-1.2363,-1.2318,-1.2309,-1.23,-1.2291,-1.2248,-1.2239,-1.2264,-1.2207,-1.2202,-1.2198,-1.2214,-1.2172,-1.2171,-1.219,-1.2192,-1.2194,-1.2252,0,0,0,0,0,0,-1.2413,-1.2407,-1.2413,-1.2372,-1.2362,-1.2352,-1.231,-1.23,-1.2289,-1.2284,-1.2245,-1.2237,-1.2206,-1.2201,-1.2197,-1.2211,-1.217,-1.2188,-1.2191,-1.2193,-1.2249,-1.2256,-1.2262,0,0,0,0,0,-1.2416,-1.2432,-1.2414,-1.2408,-1.2369,-1.2353,-1.2348,-1.2311,-1.2291,-1.2296,-1.2269,-1.2239,-1.2213,-1.2201,-1.2196,-1.2211,-1.2187,-1.219,-1.2193,-1.2246,-1.2255,-1.2262,0,0,0,0,0,0,-1.2476,-1.2426,-1.2405,-1.2408,-1.2385,-1.2342,-1.2348,-1.2322,-1.2304,-1.23,-1.2255,-1.2247,-1.2249,-1.223,-1.2217,-1.2226,-1.2196,-1.2198,-1.2238,-1.2246,-1.2253,-1.2257,-1.2169,0,0,0,0,0,-1.249,-1.2481,-1.2438,-1.2445,-1.2434,-1.2394,-1.2386,-1.2359,-1.2334,-1.2324,-1.2296,-1.2273,-1.226,-1.2252,-1.2237,-1.2246,-1.2237,-1.2254,-1.2261,-1.2267,-1.2269,-1.2272,-1.2279,-1.2204,-1.2204,-1.2204,0,0,-1.2518,-1.2489,-1.2487,-1.2456,-1.2435,-1.2428,-1.2386,-1.2379,-1.2373,-1.2323,-1.2318,-1.2297,-1.2268,-1.2271,-1.2271,-1.2255,-1.2287,-1.227,-1.2275,-1.2274,-1.2276,-1.2283,-1.2289,-1.2206,-1.2206,-1.2205,0,0,-1.2565,-1.2543,-1.2546,-1.2526,-1.2495,-1.2468,-1.2469,-1.2431,-1.2415,-1.2409,-1.2372,-1.2364,-1.2342,-1.2323,-1.2311,-1.2352,-1.2324,-1.2349,-1.2384,-1.2387,-1.2393,-1.2398,-1.2412,-1.2418,-1.2351,-1.2352,-1.2352,0,-1.2604,-1.259,-1.2551,-1.2546,-1.2534,-1.2489,-1.2492,-1.2475,-1.2442,-1.2434,-1.2417,-1.2389,-1.2367,-1.2364,-1.2375,-1.2366,-1.2366,-1.2352,-1.2396,-1.24,-1.2404,-1.2417,-1.2423,-1.2355,-1.2354,-1.2354,-1.2354,0,-1.2639,-1.263,-1.2636,-1.2605,-1.2593,-1.2593,-1.2554,-1.2548,-1.2523,-1.2498,-1.2493,-1.2465,-1.2444,-1.2442,-1.2418,-1.2436,-1.2427,-1.2404,-1.2373,-1.2415,-1.2426,-1.2431,-1.2359,-1.2358,-1.2357,-1.2356,0,0,-1.272,-1.2668,-1.2671,-1.2656,-1.2619,-1.2612,-1.261,-1.2589,-1.2584,-1.2563,-1.256,-1.2544,-1.2521,-1.2508,-1.2481,-1.2484,-1.2518,-1.246,-1.2459,-1.2471,-1.2537,-1.2554,-1.2561,-1.25,-1.2501,-1.2501,-1.2539,0,-1.276,-1.2753,-1.2718,-1.2721,-1.2712,-1.267,-1.2668,-1.2646,-1.2623,-1.2613,-1.2587,-1.2576,-1.2548,-1.2539,-1.2541,-1.2514,-1.2531,-1.2511,-1.2496,-1.2496,-1.2504,-1.2567,-1.2585,-1.2622,-1.2544,-1.2544,-1.2545,0,-1.2805,-1.2787,-1.2789,-1.2752,-1.2748,-1.2746,-1.2725,-1.2716,-1.269,-1.2673,-1.2658,-1.2629,-1.2624,-1.2597,-1.259,-1.2577,-1.257,-1.2556,-1.2556,-1.2553,-1.2522,-1.2564,-1.2633,-1.2638,-1.2552,-1.2551,-1.2551,0,-1.2864,-1.284,-1.2837,-1.2826,-1.2784,-1.2784,-1.2767,-1.274,-1.273,-1.2711,-1.2704,-1.2686,-1.2676,-1.2663,-1.2629,-1.2612,-1.2627,-1.2596,-1.2612,-1.2613,-1.2616,-1.2616,-1.2684,-1.2613,-1.2613,-1.2613,-1.2613,0,-1.2911,-1.2914,-1.2863,-1.2862,-1.2864,-1.2825,-1.2828,-1.2806,-1.2783,-1.2777,-1.274,-1.2735,-1.2692,-1.2682,-1.2656,-1.2655,-1.2651,-1.2637,-1.263,-1.264,-1.2641,-1.2633,-1.2629,-1.2614,-1.2614,-1.2614,-1.2613,0,-1.2976,-1.2942,-1.2937,-1.2898,-1.2888,-1.2892,-1.2858,-1.2856,-1.2831,-1.2824,-1.282,-1.2781,-1.2768,-1.2734,-1.2712,-1.2695,-1.27,-1.2688,-1.2709,-1.2704,-1.2722,-1.272,-1.2786,-1.2792,-1.2719,-1.2719,-1.272,0,-1.3008,-1.3009,-1.297,-1.2963,-1.2947,-1.2937,-1.2927,-1.2889,-1.2879,-1.285,-1.2852,-1.2836,-1.2821,-1.2802,-1.2772,-1.2756,-1.2742,-1.2766,-1.2739,-1.2749,-1.2741,-1.2741,-1.2741,-1.2771,-1.2772,-1.2773,-1.2774,0,-1.3068,-1.3052,-1.3038,-1.3018,-1.3007,-1.299,-1.2971,-1.2968,-1.2925,-1.2917,-1.2903,-1.2891,-1.2869,-1.2854,-1.2833,-1.2815,-1.2788,-1.2783,-1.2785,-1.2795,-1.2807,-1.28,-1.2724,-1.2781,-1.278,-1.278,-1.2779,-1.2779,-1.3117,-1.3116,-1.3088,-1.3074,-1.3056,-1.3039,-1.3035,-1.301,-1.2997,-1.2976,-1.2955,-1.2943,-1.2918,-1.2887,-1.2871,-1.2862,-1.2847,-1.2851,-1.2852,-1.2854,-1.2858,-1.2809,-1.2858,-1.2858,-1.2858,-1.2857,-1.2857,0,-1.3175,-1.3155,-1.3143,-1.3117,-1.3106,-1.3081,-1.3059,-1.3052,-1.3042,-1.3021,-1.3007,-1.2991,-1.2976,-1.2946,-1.2928,-1.2927,-1.2914,-1.2924,-1.2923,-1.2919,-1.2872,-1.2871,-1.2934,-1.2934,-1.2934,-1.2934,-1.2934,-1.2934,-1.3203,-1.32,-1.318,-1.3168,-1.3148,-1.3136,-1.3126,-1.311,-1.3093,-1.3077,-1.3064,-1.3045,-1.302,-1.3,-1.2986,-1.2977,-1.2972,-1.2986,-1.2973,-1.293,-1.2922,-1.2915,-1.2914,-1.2985,-1.2985,-1.3021,-1.3021,-1.3021]},{"header":{"parameterUnit":"m.s-1","parameterCategory":1,"la1":30.2991,"la2":30.254,"lo1":-89.0895,"lo2":-89.0444,"dy":0.0017,"dx":0.0017,"nx":28,"ny":28,"refTime":"2024-03-31T03:00:00:Z","depth":0,"parameterNumber":3,"parameterNumberName":"V-component_of_WINDS"},"data":[0,0,0,0,0,0,0,0,0,0,0,0,0,0,0,0,0,0,0,0,0,0,0,0,0,0,0,0,0,0,0,0,0,0,0,0,0,0,0,0,0,0,0,0,0,0,0,0,0,0,0,0,0,0,0,0,0,0,3.8369,3.8368,0,3.8287,3.8286,3.8285,3.8297,3.8299,3.83,3.8302,3.8213,3.8209,3.8206,0,0,0,0,0,0,0,0,0,0,0,0,0,3.8535,3.8532,3.8369,3.8368,3.8367,3.8287,3.8286,3.8285,3.8297,3.8299,3.8301,3.8302,3.8214,3.821,3.8205,0,0,0,0,0,0,0,0,0,0,0,0,0,3.8459,3.8531,3.8369,3.8364,3.8363,3.8287,3.8286,3.8284,3.8297,3.8299,3.8301,3.8303,3.8216,3.821,3.8205,3.8128,0,0,3.8188,3.8185,0,0,0,0,0,0,0,0,3.8463,3.8453,3.8366,3.8364,3.8363,3.8305,3.8312,3.8232,3.8296,3.8322,3.8302,3.8304,3.8241,3.8234,3.8214,3.8124,3.812,3.8187,3.8184,3.8182,3.818,0,0,0,0,0,0,0,3.8468,3.8456,3.8336,3.8364,3.8362,3.8365,3.8356,3.8297,3.827,3.832,3.832,3.8311,3.8241,3.8219,3.8212,3.8119,3.8187,3.8183,3.8179,3.8177,3.7965,3.7963,0,0,0,0,0,0,3.8476,3.8461,3.8339,3.8334,3.8419,3.836,3.8351,3.8321,3.8271,3.8266,3.8309,3.8312,3.8227,3.8218,3.8209,3.8118,3.8182,3.8176,3.8173,3.7968,3.7965,3.7962,0,0,0,0,0,0,3.8479,3.8465,3.8342,3.8398,3.8382,3.8355,3.8322,3.8318,3.8296,3.8263,3.8258,3.8291,3.8229,3.8216,3.8149,3.8115,3.8174,3.8169,3.797,3.7967,3.7964,3.7934,0,0,0,0,0,0,3.8484,3.8466,3.8437,3.8397,3.8379,3.8285,3.832,3.8315,3.8287,3.829,3.8246,3.824,3.8229,3.8157,3.8144,3.8108,3.8165,3.7973,3.7969,3.7965,3.7938,3.793,3.7923,0,0,0,0,0,3.849,3.843,3.8435,3.8421,3.8342,3.8283,3.8272,3.8263,3.8284,3.8255,3.8234,3.8242,3.8121,3.815,3.8135,3.8097,3.7975,3.797,3.7965,3.7941,3.7932,3.7923,0,0,0,0,0,0,3.8464,3.8425,3.843,3.8356,3.8323,3.8285,3.8247,3.8252,3.8211,3.8215,3.8203,3.8193,3.8125,3.8104,3.8138,3.8022,3.8051,3.8043,3.8038,3.8029,3.8022,3.8028,3.816,0,0,0,0,0,3.8451,3.8406,3.8374,3.8311,3.8295,3.8274,3.8247,3.8243,3.8208,3.8193,3.8168,3.8132,3.8087,3.8056,3.8012,3.7935,3.7927,3.7902,3.7895,3.7889,3.7882,3.7842,3.7831,3.7945,3.7945,3.7946,0,0,3.842,3.8393,3.8366,3.8306,3.828,3.8234,3.8262,3.8211,3.8178,3.8185,3.8121,3.8101,3.8061,3.7989,3.7956,3.797,3.7848,3.7882,3.7878,3.7874,3.7835,3.7824,3.7815,3.7942,3.7942,3.7943,0,0,3.8343,3.8318,3.8264,3.8239,3.82,3.8187,3.8174,3.8136,3.8124,3.806,3.8066,3.8025,3.7946,3.7918,3.7893,3.7809,3.7814,3.7795,3.7756,3.7717,3.7708,3.77,3.7671,3.7661,3.7787,3.7787,3.7787,0,3.831,3.8243,3.8236,3.8186,3.816,3.8168,3.8114,3.8088,3.8036,3.8018,3.8034,3.7938,3.7911,3.7834,3.7814,3.7793,3.7779,3.7799,3.771,3.7702,3.7694,3.7667,3.7656,3.7785,3.7786,3.7786,3.7786,0,3.8205,3.8158,3.812,3.8073,3.8042,3.799,3.7975,3.7945,3.7944,3.793,3.7865,3.7834,3.7785,3.7767,3.7764,3.769,3.77,3.7713,3.7742,3.7682,3.7656,3.7645,3.7782,3.7783,3.7784,3.7784,0,0,3.8107,3.806,3.8046,3.8025,3.7985,3.7948,3.7897,3.7852,3.7827,3.7791,3.7749,3.7683,3.7697,3.7669,3.7663,3.7629,3.7567,3.7647,3.7646,3.7634,3.7485,3.7476,3.7464,3.7571,3.7569,3.7567,3.7489,0,3.8027,3.7939,3.7933,3.7853,3.7811,3.7819,3.7775,3.7745,3.773,3.7692,3.7675,3.763,3.765,3.7634,3.7601,3.7581,3.7537,3.7587,3.7531,3.7529,3.7542,3.745,3.7439,3.7367,3.7479,3.7477,3.7476,0,3.7921,3.7885,3.7802,3.7771,3.7752,3.7713,3.7672,3.7635,3.7602,3.7594,3.7565,3.7565,3.7513,3.7544,3.7473,3.7508,3.7485,3.7472,3.7469,3.7463,3.7499,3.7443,3.7344,3.7333,3.7459,3.7461,3.7462,0,3.786,3.7791,3.7733,3.7715,3.7676,3.7649,3.7631,3.76,3.7574,3.7538,3.7521,3.7478,3.7455,3.7422,3.7411,3.7435,3.7341,3.7371,3.7333,3.7334,3.7313,3.7314,3.721,3.7297,3.7297,3.7297,3.7298,0,3.7771,3.772,3.7706,3.767,3.7614,3.7607,3.7551,3.7535,3.7508,3.7469,3.7473,3.7436,3.7424,3.7385,3.7376,3.7319,3.7308,3.7301,3.7299,3.7301,3.7302,3.7285,3.729,3.7294,3.7295,3.7296,3.7296,0,3.7693,3.7681,3.7619,3.7588,3.758,3.7539,3.7513,3.7479,3.7466,3.7418,3.7406,3.7385,3.7341,3.7327,3.7271,3.7265,3.72,3.7202,3.7212,3.7212,3.7175,3.7179,3.7057,3.7041,3.7138,3.7137,3.7136,0,3.7637,3.7599,3.7565,3.7541,3.7523,3.7482,3.7457,3.7449,3.7422,3.7384,3.7354,3.7311,3.7275,3.7203,3.7183,3.7141,3.7143,3.7103,3.7137,3.7141,3.7144,3.7147,3.7144,3.7097,3.7096,3.7095,3.7094,0,3.754,3.7537,3.7501,3.7463,3.7433,3.7403,3.7373,3.7352,3.7341,3.731,3.7266,3.7239,3.7184,3.7141,3.71,3.7081,3.7086,3.7084,3.7073,3.7075,3.7083,3.708,3.7195,3.7087,3.7087,3.7088,3.7088,3.7089,3.7472,3.744,3.7412,3.7372,3.735,3.7323,3.7291,3.7275,3.7239,3.7195,3.7193,3.7145,3.7115,3.706,3.7039,3.7002,3.7013,3.6997,3.6993,3.699,3.6988,3.7089,3.6994,3.6994,3.6994,3.6994,3.6995,0,3.7377,3.736,3.7324,3.7284,3.7253,3.7263,3.7232,3.7205,3.7163,3.7135,3.7102,3.7052,3.701,3.6988,3.6947,3.6922,3.6923,3.6911,3.6913,3.6909,3.6979,3.6993,3.6911,3.6911,3.6911,3.6911,3.6911,3.6911,3.7324,3.727,3.7264,3.7199,3.7183,3.7138,3.7119,3.7095,3.7073,3.7018,3.6984,3.6971,3.6946,3.6904,3.6867,3.6862,3.6847,3.6834,3.683,3.6895,3.6904,3.6912,3.6925,3.683,3.683,3.6763,3.6763,3.6762]}]]